Weather History for KMMK - October, 2011

Change the Weather History Date:

Thursday, October 13, 2011

  Actual Average (KHVN) Record (KHVN)
Temperature  
Mean Temperature 58 °F -  
Max Temperature 63 °F 61 °F 77 °F (1990)
Min Temperature 53 °F 45 °F 28 °F (2012)
Degree Days  
Heating Degree Days 7    
Growing Degree Days 8 (Base 50)    
Moisture  
Dew Point 56 °F    
Average Humidity 93    
Maximum Humidity 100    
Minimum Humidity 82    
Precipitation  
Precipitation 0.18 in - - ()
Sea Level Pressure  
Sea Level Pressure 29.85 in    
Wind  
Wind Speed 6 mph (North)    
Max Wind Speed 9 mph    
Max Gust Speed -    
Visibility 6 miles    
Events Rain    
Averages and records for this station are not official NWS values.
T = Trace of Precipitation, MM = Missing Value Source: NWS Daily Summary

Daily Weather History Graph

Daily Weather History Graph

Search for Another Location

Airport or City:

Trip Planner

Search our weather history database for the weather conditions in past years. The results will help you decide how hot, cold, wet, or windy it might be!

Date:

Astronomy

Oct. 13, 2011 Rise Set
Actual Time 7:00 AM EDT 6:13 PM EDT
Civil Twilight 6:32 AM EDT 6:41 PM EDT
Nautical Twilight 6:00 AM EDT 7:13 PM EDT
Astronomical Twilight 5:28 AM EDT 7:45 PM EDT
Moon 6:45 PM EDT (10/13) 8:31 AM EDT (10/13)
Length of Visible Light 12h 08m
Length of Day
11h 13m
Full, 98% of the Moon is Illuminated
Oct 13
Full
Oct 19
Last Quarter
Oct 26
New
Nov 2
First Quarter
Nov 10
Full

Hourly Weather History & Observations

Time (EDT) Temp. Dew Point Humidity Pressure Visibility Wind Dir Wind Speed Gust Speed Precip Events Conditions
12:11 AM 53.6 °F 51.8 °F 94% 30.00 in 6.0 mi NNE 5.8 mph - N/A   Overcast
12:30 AM 53.6 °F 51.8 °F 94% 30.00 in 6.0 mi North 5.8 mph - N/A   Overcast
12:53 AM 54.0 °F 52.0 °F 93% 29.98 in 3.0 mi North 9.2 mph - N/A   Overcast
1:53 AM 55.0 °F 53.1 °F 93% 29.96 in 8.0 mi North 5.8 mph - N/A   Overcast
2:53 AM 55.0 °F 53.1 °F 93% 29.92 in 4.0 mi North 8.1 mph - 0.00 in Rain Light Rain
3:53 AM 55.9 °F 54.0 °F 93% 29.91 in 6.0 mi North 8.1 mph - 0.00 in Rain Light Rain
4:01 AM 55.4 °F 53.6 °F 94% 29.91 in 2.5 mi North 3.5 mph - 0.04 in Rain Heavy Rain
4:06 AM 55.4 °F 53.6 °F 94% 29.90 in 1.8 mi Calm Calm - 0.07 in Rain Heavy Rain
4:10 AM 55.4 °F 53.6 °F 94% 29.90 in 2.0 mi NNE 6.9 mph - 0.07 in Rain Rain
4:13 AM 55.4 °F 53.6 °F 94% 29.90 in 3.0 mi NNE 5.8 mph - 0.07 in Rain Light Rain
4:21 AM 55.4 °F 53.6 °F 94% 29.90 in 3.0 mi North 6.9 mph - 0.10 in Rain Heavy Rain
4:33 AM 55.4 °F 53.6 °F 94% 29.90 in 6.0 mi North 6.9 mph - 0.11 in Rain Light Rain
4:43 AM 55.4 °F 55.4 °F 100% 29.89 in 9.0 mi NNE 5.8 mph - 0.11 in Rain Light Rain
4:53 AM 55.9 °F 54.0 °F 93% 29.88 in 7.0 mi NNE 9.2 mph - 0.11 in Rain Light Rain
5:28 AM 57.2 °F 55.4 °F 94% 29.88 in 10.0 mi North 5.8 mph - 0.04 in Rain Light Rain
5:53 AM 57.0 °F 55.0 °F 93% 29.87 in 10.0 mi North 5.8 mph - 0.04 in   Overcast
6:09 AM 57.2 °F 55.4 °F 94% 29.87 in 8.0 mi North 5.8 mph - 0.00 in Rain Light Rain
6:16 AM 57.2 °F 55.4 °F 94% 29.87 in 5.0 mi North 4.6 mph - 0.01 in Rain Rain
6:50 AM 57.2 °F 55.4 °F 94% 29.86 in 6.0 mi North 6.9 mph - 0.03 in Rain Light Rain
6:53 AM 57.0 °F 55.0 °F 93% 29.86 in 8.0 mi North 6.9 mph - 0.03 in Rain Light Rain
7:00 AM 57.2 °F 55.4 °F 94% 29.86 in 10.0 mi North 5.8 mph - 0.00 in Rain Light Rain
7:24 AM 57.2 °F 55.4 °F 94% 29.86 in 8.0 mi North 5.8 mph - 0.00 in   Overcast
7:53 AM 57.0 °F 55.0 °F 93% 29.86 in 3.0 mi North 5.8 mph - 0.00 in Rain Light Rain
8:02 AM 57.2 °F 55.4 °F 94% 29.87 in 2.0 mi North 8.1 mph - 0.00 in Rain Light Rain
8:17 AM 57.2 °F 55.4 °F 94% 29.86 in 4.0 mi North 5.8 mph - 0.00 in   Overcast
8:33 AM 57.2 °F 55.4 °F 94% 29.86 in 1.8 mi North 5.8 mph - 0.00 in   Overcast
8:53 AM 57.9 °F 55.9 °F 93% 29.86 in 2.5 mi North 6.9 mph - 0.00 in   Overcast
9:01 AM 57.2 °F 55.4 °F 94% 29.86 in 4.0 mi North 6.9 mph - N/A   Overcast
10:53 AM 59.0 °F 57.0 °F 93% 29.84 in 5.0 mi North 6.9 mph - N/A   Overcast
12:45 PM 62.6 °F 57.2 °F 82% 29.82 in 10.0 mi North 8.1 mph - N/A   Overcast
12:53 PM 61.0 °F 57.0 °F 87% 29.82 in 10.0 mi North 9.2 mph - N/A   Overcast
1:51 PM 62.6 °F 57.2 °F 82% 29.78 in 10.0 mi North 6.9 mph - N/A   Overcast
1:53 PM 62.1 °F 57.9 °F 86% 29.78 in 10.0 mi North 6.9 mph - N/A   Overcast
2:53 PM 62.1 °F 57.9 °F 86% 29.79 in 10.0 mi North 5.8 mph - N/A   Overcast
3:21 PM 62.6 °F 59.0 °F 88% 29.79 in 10.0 mi North 4.6 mph - N/A   Overcast
3:53 PM 63.0 °F 57.9 °F 84% 29.78 in 10.0 mi North 5.8 mph - N/A   Overcast
4:53 PM 62.1 °F 59.0 °F 90% 29.77 in 10.0 mi Calm Calm - N/A   Overcast
5:26 PM 62.6 °F 59.0 °F 88% 29.77 in 2.5 mi North 4.6 mph - N/A   Overcast
5:53 PM 61.0 °F 59.0 °F 93% 29.77 in 1.5 mi North 3.5 mph - N/A   Overcast
6:12 PM 60.8 °F 59.0 °F 94% 29.77 in 2.0 mi North 4.6 mph - N/A   Overcast
6:24 PM 60.8 °F 59.0 °F 94% 29.77 in 4.0 mi North 3.5 mph - N/A   Overcast
6:53 PM 61.0 °F 59.0 °F 93% 29.78 in 4.0 mi Calm Calm - N/A   Overcast
7:19 PM 60.8 °F 59.0 °F 94% 29.79 in 3.0 mi Calm Calm - N/A   Overcast
7:53 PM 61.0 °F 59.0 °F 93% 29.79 in 3.0 mi Calm Calm - N/A   Overcast
8:53 PM 61.0 °F 59.0 °F 93% 29.78 in 4.0 mi Calm Calm - 0.00 in Rain Light Rain
9:53 PM 61.0 °F 60.1 °F 97% 29.79 in 4.0 mi North 3.5 mph - N/A   Overcast
10:53 PM 62.1 °F 60.1 °F 93% 29.77 in 5.0 mi North 3.5 mph - N/A   Overcast
11:10 PM 60.8 °F 60.8 °F 100% 29.76 in 2.5 mi NNW 3.5 mph - 0.00 in Rain Light Rain
11:17 PM 60.8 °F 60.8 °F 100% 29.76 in 3.0 mi NNW 3.5 mph - 0.00 in   Overcast
11:53 PM 61.0 °F 60.1 °F 97% 29.75 in 3.0 mi North 3.5 mph - 0.00 in   Overcast